Total_Precipitation_Accumulation
1.62 1.51 1.51 1.47 1.43 1.43 1.50 1.69 2.00 1.83 1.23 0.93 0.95 1.01 1.10 1.21 1.26 1.16 1.11 1.35 1.45 1.51 1.61 1.70 1.80 1.95 2.28 2.85 3.51 4.45 5.10 4.81 3.99 3.43 3.40 3.81 4.34 4.85
1.71 1.68 1.54 1.46 1.47 1.51 1.59 1.61 1.71 1.88 1.56 0.94 0.84 0.92 1.08 1.27 1.39 1.18 1.15 1.37 1.41 1.48 1.49 1.52 1.68 1.85 2.05 2.35 2.75 3.36 4.29 4.82 4.63 4.10 3.73 3.88 4.19 4.65
1.65 1.69 1.58 1.48 1.59 1.63 1.69 1.73 1.67 1.72 1.75 1.15 0.90 0.97 1.21 1.37 1.45 1.32 1.28 1.27 1.28 1.43 1.49 1.50 1.55 1.76 1.95 2.10 2.29 2.68 3.35 4.12 4.60 4.66 4.37 4.16 4.21 4.32
1.63 1.65 1.64 1.55 1.56 1.60 1.71 1.73 1.65 1.58 1.68 1.46 1.14 1.13 1.28 1.43 1.48 1.46 1.43 1.38 1.26 1.37 1.45 1.55 1.55 1.68 1.89 2.00 2.09 2.30 2.68 3.22 3.81 4.32 4.51 4.23 4.12 4.18
1.57 1.62 1.65 1.64 1.57 1.52 1.61 1.66 1.60 1.56 1.61 1.64 1.37 1.23 1.33 1.49 1.65 1.69 1.63 1.60 1.45 1.44 1.46 1.55 1.65 1.68 1.82 1.96 2.07 2.16 2.28 2.46 2.88 3.55 4.19 4.28 4.09 4.11
1.48 1.48 1.56 1.70 1.72 1.70 1.71 1.67 1.69 1.79 1.78 1.78 1.61 1.43 1.46 1.58 1.77 1.87 1.89 1.83 1.72 1.55 1.58 1.64 1.72 1.77 1.77 1.81 1.83 1.88 1.99 2.28 2.64 3.12 3.61 4.01 4.06 4.04
1.42 1.34 1.42 1.71 1.94 2.11 2.15 1.98 1.99 2.17 2.14 2.10 1.96 1.73 1.61 1.67 1.81 1.81 1.92 1.88 1.87 1.74 1.64 1.65 1.64 1.63 1.63 1.69 1.72 1.75 1.82 2.03 2.31 2.64 3.05 3.43 3.76 3.96
1.48 1.33 1.36 1.64 1.84 2.04 2.21 2.16 2.17 2.37 2.48 2.42 2.23 1.93 1.58 1.46 1.57 1.82 2.09 2.29 2.28 1.94 1.76 1.79 1.64 1.69 1.66 1.58 1.73 1.80 1.83 1.98 2.18 2.39 2.65 2.94 3.28 3.67
1.40 1.36 1.40 1.49 1.67 1.69 1.88 1.96 1.94 2.10 2.34 2.45 2.42 1.94 1.68 1.57 1.84 2.15 2.20 2.31 2.19 2.07 2.08 2.19 1.86 1.79 1.71 1.73 1.85 1.80 1.88 1.95 2.06 2.22 2.43 2.63 2.87 3.23
1.48 1.39 1.33 1.36 1.51 1.71 1.82 1.81 1.70 1.73 1.94 2.12 2.32 2.10 1.89 1.94 2.30 2.65 2.78 2.76 2.46 2.27 2.22 2.50 2.12 1.89 1.79 1.77 1.86 1.76 1.78 1.85 1.93 2.03 2.19 2.40 2.61 2.87
1.56 1.47 1.34 1.28 1.53 1.75 1.71 1.67 1.57 1.58 1.71 1.94 2.10 2.17 2.21 2.37 2.71 3.20 3.41 3.42 3.11 2.66 2.38 2.46 2.33 2.15 2.15 2.14 2.07 1.96 1.77 1.74 1.82 1.90 2.00 2.14 2.35 2.69
1.59 1.51 1.58 1.54 1.68 1.72 1.58 1.66 1.77 1.60 1.51 1.56 1.63 1.68 1.71 1.88 2.35 2.83 3.27 3.48 3.24 3.08 2.60 2.43 2.42 2.47 2.96 2.74 2.33 2.02 1.84 1.79 1.75 1.77 1.81 1.86 2.05 2.18
1.61 1.59 1.51 1.71 1.74 1.72 1.69 1.64 1.81 1.70 1.56 1.62 1.60 1.53 1.52 1.63 1.83 2.18 2.76 3.28 3.37 3.10 2.62 2.73 2.88 2.55 2.81 2.90 2.60 2.19 1.83 1.71 1.63 1.67 1.70 1.73 1.78 1.83
1.61 1.49 1.45 1.67 1.71 1.75 1.69 1.73 1.80 1.76 1.64 1.66 1.59 1.48 1.48 1.58 1.74 1.95 2.26 2.64 2.85 2.80 2.54 2.76 3.25 2.87 2.64 2.51 2.47 2.36 1.99 1.76 1.59 1.55 1.55 1.80 1.86 1.87
1.75 1.78 1.71 1.79 1.79 1.67 1.64 1.69 1.63 1.53 1.61 1.67 1.56 1.38 1.32 1.44 1.57 1.72 1.85 2.09 2.31 2.39 2.46 2.57 2.88 2.90 2.79 2.60 2.20 2.03 2.04 2.06 1.77 1.61 1.56 1.60 1.63 1.67
1.89 1.87 1.85 1.87 1.82 1.73 1.65 1.51 1.39 1.42 1.54 1.55 1.45 1.33 1.23 1.30 1.45 1.58 1.74 1.87 2.19 2.36 2.40 2.52 2.79 3.08 3.07 2.44 2.14 1.95 1.77 2.10 2.03 1.75 1.63 1.61 1.54 1.46
1.96 2.00 1.93 1.87 1.86 1.72 1.52 1.35 1.29 1.39 1.46 1.37 1.36 1.37 1.34 1.34 1.36 1.41 1.63 1.79 2.05 2.18 2.34 2.57 2.82 2.99 3.08 2.85 2.54 2.07 1.74 1.75 1.83 1.73 1.67 1.75 1.76 1.63
2.06 2.02 1.81 1.60 1.52 1.47 1.39 1.32 1.26 1.27 1.27 1.29 1.35 1.35 1.34 1.36 1.37 1.36 1.50 1.71 1.90 1.97 2.09 2.32 2.68 3.00 3.17 3.23 2.83 2.23 1.86 1.79 1.86 1.81 1.68 1.74 1.93 1.85
1.85 1.66 1.50 1.41 1.35 1.30 1.26 1.24 1.23 1.16 1.17 1.26 1.32 1.31 1.28 1.33 1.38 1.41 1.46 1.60 1.74 1.88 2.02 2.14 2.43 2.84 3.06 3.20 3.21 2.59 2.13 1.93 1.97 2.12 1.97 1.74 1.80 1.88
1.50 1.47 1.42 1.36 1.36 1.37 1.34 1.30 1.24 1.20 1.23 1.24 1.26 1.26 1.29 1.36 1.40 1.37 1.40 1.55 1.66 1.77 1.93 2.07 2.34 2.67 2.92 2.86 2.99 2.93 2.64 2.24 2.07 2.25 2.20 1.96 1.88 2.01
1.36 1.37 1.36 1.37 1.40 1.41 1.35 1.32 1.30 1.25 1.19 1.19 1.18 1.17 1.20 1.31 1.33 1.27 1.33 1.48 1.59 1.69 1.84 1.96 2.15 2.39 2.56 2.62 2.66 2.67 2.80 2.77 2.33 2.22 2.21 2.20 2.13 2.12
1.33 1.36 1.35 1.37 1.42 1.43 1.38 1.34 1.33 1.27 1.20 1.17 1.13 1.11 1.13 1.22 1.29 1.28 1.34 1.43 1.46 1.54 1.69 1.82 1.94 2.17 2.44 2.67 2.64 2.51 2.64 2.81 2.75 2.48 2.27 2.15 2.23 2.37
1.42 1.43 1.41 1.40 1.39 1.40 1.39 1.32 1.29 1.25 1.19 1.16 1.13 1.12 1.14 1.19 1.20 1.26 1.32 1.34 1.38 1.43 1.56 1.78 1.95 2.12 2.36 2.52 2.59 2.46 2.42 2.54 2.57 2.57 2.68 2.36 1.93 1.76